TimeMST,TemperatureF,Dew PointF,Humidity,Sea Level PressureIn,VisibilityMPH,Wind Direction,Wind SpeedMPH,Gust SpeedMPH,PrecipitationIn,Events,Conditions,WindDirDegrees,DateUTC
12:53 AM,28.0,8.1,43,29.92,10.0,WNW,6.9,-,N/A,,Clear,290,2012-12-22 07:53:00
1:53 AM,28.9,6.1,38,29.92,10.0,NW,8.1,-,N/A,,Clear,310,2012-12-22 08:53:00
2:53 AM,30.9,5.0,33,29.93,10.0,NNW,6.9,-,N/A,,Clear,340,2012-12-22 09:53:00
3:53 AM,28.0,6.1,39,29.96,10.0,West,9.2,-,N/A,,Clear,260,2012-12-22 10:53:00
4:53 AM,28.9,6.1,38,30.02,10.0,NW,9.2,-,N/A,,Clear,310,2012-12-22 11:53:00
5:53 AM,26.1,6.1,43,30.03,10.0,West,10.4,-,N/A,,Clear,280,2012-12-22 12:53:00
6:53 AM,28.0,5.0,38,30.02,10.0,West,6.9,-,N/A,,Clear,270,2012-12-22 13:53:00
7:53 AM,26.1,5.0,41,30.04,10.0,WSW,6.9,-,N/A,,Clear,240,2012-12-22 14:53:00
8:53 AM,35.1,8.1,33,29.99,10.0,WSW,5.8,-,N/A,,Clear,250,2012-12-22 15:53:00
9:53 AM,37.9,10.0,32,30.00,10.0,Calm,Calm,-,N/A,,Clear,0,2012-12-22 16:53:00
10:53 AM,39.9,10.9,31,29.97,10.0,SE,6.9,-,N/A,,Clear,140,2012-12-22 17:53:00
11:53 AM,44.1,9.0,24,29.93,10.0,ESE,4.6,-,N/A,,Clear,110,2012-12-22 18:53:00
12:53 PM,46.0,5.0,19,29.91,10.0,SSE,8.1,-,N/A,,Clear,150,2012-12-22 19:53:00
1:53 PM,46.0,6.1,20,29.87,10.0,ESE,8.1,-,N/A,,Clear,120,2012-12-22 20:53:00
2:53 PM,48.0,6.1,18,29.83,10.0,Calm,Calm,-,N/A,,Clear,0,2012-12-22 21:53:00
3:53 PM,43.0,6.1,22,29.83,10.0,NNW,8.1,-,N/A,,Clear,340,2012-12-22 22:53:00
4:53 PM,32.0,8.1,37,29.84,10.0,NW,8.1,-,N/A,,Clear,310,2012-12-22 23:53:00
5:53 PM,28.9,8.1,41,29.86,10.0,NNW,9.2,-,N/A,,Clear,340,2012-12-23 00:53:00
6:53 PM,28.0,10.9,49,29.84,10.0,NNW,9.2,-,N/A,,Clear,330,2012-12-23 01:53:00
7:53 PM,24.1,12.9,62,29.85,10.0,WNW,8.1,-,N/A,,Clear,290,2012-12-23 02:53:00
8:53 PM,21.9,12.0,66,29.80,10.0,WNW,4.6,-,N/A,,Clear,300,2012-12-23 03:53:00
9:53 PM,19.9,12.9,74,29.78,10.0,Variable,5.8,-,N/A,,Clear,0,2012-12-23 04:53:00
10:53 PM,21.0,14.0,74,29.76,10.0,North,11.5,-,N/A,,Clear,360,2012-12-23 05:53:00
11:53 PM,17.1,12.0,81,29.74,10.0,NNW,18.4,25.3,N/A,,Clear,330,2012-12-23 06:53:00